Location: T�bingen+AIT
(48.5342°N, 9.0700°E)
Time: 01:49:52
(UTC+02:00)

Cosmos 1295 Rocket - Pass Details

Date: 14 September 2017
Orbit: 943 x 995 km, 82.9° (Epoch: 23 September)

Event Time Altitude Azimuth Distance (km) Brightness Sun altitude
Exits shadow 22:50:55 81° 54° (NE) 968 4.3 -29.2°
Drops below altitude 10° 22:56:48 10° 11° (N) 2,677 7.2 -29.8°
Sets 22:59:17 0° 10° (N) 3,623 8.0 -30.1°
